Dewpoint
-7 -5 -4 -1 -3 -1 0 -1 -3 -3 5 12 6 9 7 13 10 8 10 5 -0 -7 -7 -6 -2 5 6 7 8 8 8 8 8 6 4 3 2 3 4 4 4 5 5 4 4 4 3 2 5
-8 -6 -1 -2 -1 -2 -5 -3 3 3 11 12 11 12 13 14 13 11 9 7 2 -4 -5 -5 -7 -8 -7 -1 4 6 6 7 7 6 5 3 3 2 3 3 4 4 5 5 4 4 3 3 3
-10 -8 -2 -2 -1 -3 -3 -7 -7 -6 14 11 15 14 14 14 12 8 8 8 6 2 -2 -2 -3 -4 -7 -10 -7 -0 3 4 5 4 4 3 2 1 3 2 3 4 4 5 5 4 3 3 3
-10 -5 -3 -3 -1 -3 -4 -6 -8 -7 3 10 14 16 14 13 9 8 9 8 8 4 2 -0 -1 -0 -1 -4 -7 -4 -2 1 2 2 3 3 3 1 2 2 2 3 3 4 4 5 4 4 4
-11 -7 -3 -2 -3 -5 -7 -8 -8 1 2 11 13 16 15 14 11 10 10 10 9 7 3 0 1 2 1 1 -2 -4 -4 -3 -3 -1 1 2 2 1 2 2 2 2 3 3 3 4 4 4 4
-11 -6 -3 -2 -4 -7 -8 -9 -7 -6 -5 11 13 16 15 15 14 13 11 10 10 9 4 1 2 3 3 3 3 1 -1 -2 -3 -1 -0 1 1 1 2 2 2 1 2 2 3 3 3 4 4
-10 -10 -7 -5 -6 -7 -7 -10 -7 -7 -5 10 13 15 15 15 15 14 14 13 11 9 7 3 3 4 4 4 4 4 3 2 1 0 0 1 1 2 2 3 3 3 3 3 4 4 4 5 5
-9 -10 -7 -6 -6 -9 -9 -10 -11 -10 -3 11 12 14 15 15 15 15 14 14 13 11 9 6 5 5 4 5 5 5 5 5 5 5 4 4 4 4 4 5 5 5 5 5 5 5 6 6 7
-9 -8 -7 -8 -9 -9 -9 -9 -9 -11 -9 3 11 12 13 13 15 15 14 14 14 12 9 7 6 6 6 7 6 6 7 7 7 7 7 8 8 8 8 8 8 8 7 7 7 7 7 8 8
-8 -8 -9 -10 -10 -9 -8 -9 -9 -10 -10 4 5 4 11 14 14 14 14 14 14 14 14 13 10 8 8 8 7 7 8 8 8 8 8 8 9 9 9 10 10 10 10 10 10 10 10 10 10
-5 -6 -9 -8 -8 -2 -7 -7 -9 -10 -9 -8 -2 5 11 14 15 14 14 13 13 14 14 13 12 11 9 8 8 9 9 9 9 9 9 9 9 10 10 10 11 11 12 13 13 13 13 13 12
1 -3 -3 -1 -1 -2 -3 -5 -7 -7 -8 -7 -7 -5 8 13 14 14 14 14 14 14 14 12 10 10 10 9 9 9 9 9 9 9 10 9 9 9 8 7 9 11 12 12 12 12 12 12 12
-1 -1 0 -1 -1 -2 -2 -3 -5 -5 -6 -7 -8 -2 6 7 8 13 14 14 14 14 13 11 10 10 9 9 10 10 10 10 10 10 8 2 -1 -0 1 4 8 9 11 11 10 10 10 11 12
1 1 0 -1 -2 -3 -2 -3 -5 -6 -6 -6 -6 -5 4 7 7 12 14 14 13 13 13 12 10 10 10 10 10 11 11 11 10 4 2 0 -2 -3 -2 -2 3 9 9 11 10 10 10 10 11
2 1 0 -1 -3 -2 -3 -3 -5 -3 -3 -5 -6 -7 -4 2 6 11 9 12 13 12 12 12 11 10 10 11 12 12 11 9 7 4 3 0 -3 -6 -5 -5 -4 3 6 9 10 10 9 9 12
2 1 1 -5 -2 -2 -3 1 -3 -2 -2 -3 -7 -7 -7 -5 3 3 10 11 13 13 12 12 12 11 11 11 11 11 9 9 8 7 5 0 -5 -6 -3 -2 1 1 4 7 9 10 10 10 11
3 2 2 1 -1 -2 -2 0 -3 -1 -2 -2 -3 -4 -5 -8 -1 2 10 10 11 11 12 12 12 12 12 11 10 10 9 8 8 8 5 -1 -6 -6 -2 -1 1 2 4 5 5 8 8 9 9
5 5 3 2 1 0 1 0 -1 -1 -2 -2 -1 -1 -2 -3 -3 -4 6 11 12 12 11 12 13 13 12 11 12 11 11 9 7 5 2 -4 -6 -6 -2 -2 1 3 3 5 6 6 8 8 8
4 4 5 3 1 2 2 1 -0 -2 -1 0 0 -0 -1 -2 -3 -3 4 10 12 12 12 13 13 13 12 11 12 10 9 7 6 3 -2 -5 -6 -7 -5 -3 -0 2 3 3 2 3 4 6 6
5 5 5 3 1 2 3 2 0 -2 1 1 1 1 0 -1 -2 -4 3 9 11 12 12 13 13 13 11 10 10 9 8 5 2 -0 -2 -3 -4 -5 -4 -2 -2 -1 -1 -1 -2 -2 -2 -0 0
4 5 4 4 2 1 2 3 1 0 1 1 1 2 3 1 -1 -2 4 10 12 12 12 13 13 12 10 9 8 7 5 3 2 1 -0 -1 -2 -3 -3 -3 -2 -2 -3 -3 -3 -4 -6 -4 -5
5 2 3 3 3 5 1 7 2 1 3 1 1 4 6 5 5 1 7 11 11 12 12 13 12 10 10 10 9 8 6 5 3 2 1 0 -1 -1 -3 -3 -3 -3 -4 -6 -7 -9 -13 -10 -9
4 2 2 1 2 3 3 5 3 2 3 2 1 4 7 7 8 8 9 10 10 11 11 11 10 9 9 9 8 7 6 5 4 3 2 2 2 2 1 -3 -4 -3 -4 -7 -7 -9 -9 -9 -7
-0 -1 0 1 2 5 3 4 4 3 3 2 1 3 5 5 7 7 8 8 9 10 10 10 9 9 8 7 6 5 5 5 4 4 4 4 4 4 3 -1 -5 -8 -8 -6 -5 -6 -6 -4 -3
-2 2 5 5 5 6 2 4 3 2 1 1 1 2 2 -1 -2 5 6 8 8 9 9 9 8 7 6 5 4 4 5 5 5 4 4 4 4 4 2 -1 -5 -7 -8 -8 -6 -5 -5 -3 -1
-0 2 5 7 7 5 4 5 5 1 -2 -1 -0 0 1 0 -1 -2 -1 2 4 5 5 5 5 5 5 5 5 5 5 5 5 5 5 5 5 4 3 1 -1 -4 -6 -4 -5 -5 -4 -4 -3
3 3 0 4 5 4 5 5 3 3 1 -3 -3 -2 -1 0 -1 -3 -1 -1 -1 -0 -0 -2 -3 -3 -3 -2 3 5 5 5 5 5 5 4 4 4 3 2 1 -0 -4 -4 -3 -4 -4 -4 -4
1 -0 4 4 7 8 6 6 6 5 2 -2 -4 -2 -2 -3 -4 -7 -6 -6 -4 -2 -2 -7 -8 -1 3 3 2 4 5 4 4 5 4 4 4 4 3 2 1 1 -0 -3 -2 -3 -4 -5 -5
3 4 5 5 5 6 6 6 2 2 0 -2 -5 -6 -2 -3 -6 -8 -5 -4 -4 -4 -6 -7 -4 -4 -4 -1 2 3 4 4 4 4 3 3 3 3 3 2 1 1 -0 -2 -3 -3 -4 -6 -8
-1 3 4 6 7 4 4 5 -1 -3 -4 -3 -4 -6 -10 -4 -3 -3 -3 -3 -5 -4 -4 -4 -2 -4 -7 -6 0 2 3 4 4 3 3 2 1 2 2 2 2 1 0 -1 -2 -4 -5 -8 -11
Wind_Speed
3 4 4 3 4 5 4 6 3 9 1 2 15 6 9 2 4 4 11 28 25 26 24 23 23 23 22 21 20 19 18 17 15 14 12 12 12 11 10 9 7 5 6 7 8 9 9 9 10
4 4 0 2 5 3 5 5 5 2 1 21 16 11 3 3 3 6 23 27 25 25 23 22 21 21 20 20 20 19 18 17 16 15 14 12 11 10 10 9 7 5 4 5 7 8 8 8 8
5 4 1 4 3 3 3 4 7 9 20 5 7 4 4 6 7 20 25 26 29 25 23 22 21 19 18 18 18 18 18 17 16 15 14 12 11 10 9 9 8 6 5 4 4 6 7 6 6
4 2 4 4 2 5 4 8 14 6 10 13 12 6 5 6 16 18 23 26 28 26 24 23 21 20 18 17 17 17 17 17 16 15 14 12 11 10 9 8 8 6 5 5 4 3 5 5 5
2 2 4 4 3 5 5 11 13 2 3 2 1 4 6 11 15 19 25 26 28 27 25 24 23 21 19 17 17 16 16 16 15 14 14 12 11 10 9 8 8 7 6 5 5 4 3 5 5
2 3 4 1 4 5 5 16 15 11 9 3 5 6 5 10 15 24 26 29 26 23 26 26 25 22 21 19 17 17 16 15 15 14 13 13 11 10 9 8 8 7 7 7 6 6 5 4 4
5 3 4 3 4 4 5 18 5 8 10 4 9 4 5 15 19 25 25 25 24 25 27 28 26 24 22 20 19 18 16 16 14 13 12 12 11 10 10 9 9 9 9 9 9 8 8 7 6
1 4 2 3 2 3 7 13 11 12 3 1 1 4 5 24 26 25 24 23 21 22 26 28 27 26 24 22 20 19 17 16 14 13 13 13 12 11 11 11 11 12 12 12 12 12 11 10 9
0 3 1 3 2 3 8 8 14 15 7 6 4 6 8 27 28 26 26 26 25 24 26 28 28 26 24 22 21 20 18 16 15 15 14 14 14 14 14 14 14 15 15 15 15 15 15 13 12
3 3 7 3 3 5 4 3 16 9 19 2 4 8 10 27 32 33 34 34 33 31 29 26 27 28 26 24 23 21 20 18 16 16 15 15 15 15 15 16 17 17 18 19 19 17 16 16 15
4 3 2 4 9 20 8 8 6 5 5 12 9 5 14 28 32 34 35 33 33 31 27 27 28 29 28 26 24 23 21 19 17 16 16 16 15 16 18 18 18 15 13 12 13 13 12 12 14
3 4 5 11 15 11 10 13 8 11 13 20 24 15 14 27 33 35 35 34 32 29 27 26 27 29 28 25 23 22 20 19 17 17 16 15 15 17 18 18 16 14 14 14 15 13 14 12 13
4 3 15 21 17 20 13 12 12 20 27 20 21 12 21 24 28 35 36 35 31 29 28 28 29 29 28 26 23 22 21 19 18 17 16 14 13 14 14 16 17 15 16 16 15 13 14 13 12
8 12 17 16 24 20 9 5 3 20 24 29 28 26 24 27 28 36 37 37 34 31 29 28 29 29 27 25 24 23 22 21 19 17 13 12 13 14 13 14 16 18 18 17 16 14 14 13 14
8 6 8 8 8 5 4 4 5 18 21 24 24 24 25 28 31 37 36 38 36 32 30 29 27 29 30 28 25 23 22 21 18 15 13 13 14 14 13 13 12 13 15 16 16 18 18 16 17
3 1 4 5 5 5 3 5 9 20 22 24 18 23 21 28 34 35 40 38 36 33 33 29 29 29 29 27 26 24 22 21 19 17 16 15 16 16 14 12 12 12 14 14 15 17 17 16 15
3 3 3 7 5 4 3 6 7 22 19 22 20 18 16 17 25 34 41 41 39 34 34 33 31 30 26 25 25 25 24 23 21 20 19 18 18 18 15 13 13 13 14 14 14 16 17 17 15
5 3 3 4 6 3 8 9 9 16 12 12 14 13 10 10 14 17 35 40 38 37 34 34 33 30 27 25 26 26 25 25 23 21 21 20 19 18 17 15 15 15 15 16 17 17 17 17 16
2 3 4 5 11 4 8 5 9 10 6 10 10 11 11 10 11 13 22 34 39 38 37 36 35 32 28 27 28 28 27 25 24 24 22 21 20 20 19 18 18 18 17 17 17 17 17 17 17
6 7 8 7 10 5 7 10 8 4 1 3 5 8 10 11 10 11 19 29 39 39 41 36 38 33 30 28 25 24 24 25 24 23 22 19 18 19 19 19 19 19 18 18 17 17 17 18 18
9 6 7 8 6 4 5 6 5 3 6 11 13 14 14 13 14 11 16 26 35 39 39 39 39 34 25 18 15 17 21 23 24 24 20 17 18 19 18 19 20 20 18 18 18 18 18 19 21
5 9 13 11 3 2 2 5 3 1 6 6 16 20 20 16 13 5 15 25 31 34 35 38 37 28 18 13 9 13 19 22 22 21 19 18 17 18 19 20 21 20 18 18 18 19 20 21 22
8 9 8 5 2 3 3 1 5 5 4 4 9 19 22 21 16 10 1 15 21 27 30 30 24 16 11 10 12 13 14 15 17 19 19 19 19 19 20 20 21 21 19 19 18 18 20 22 22
3 3 5 4 2 2 6 7 4 3 5 2 2 16 21 24 22 16 10 3 7 14 15 17 13 11 10 11 10 11 12 11 13 14 17 19 19 23 23 22 22 23 21 20 18 18 19 21 21
3 5 1 3 1 5 3 3 4 4 4 5 5 12 17 19 21 23 20 13 10 7 7 7 8 7 7 9 9 11 13 14 15 14 16 19 20 23 22 22 21 22 22 20 19 19 18 19 21
6 7 5 6 4 3 5 4 4 5 7 8 8 10 13 14 15 17 16 16 14 12 10 8 2 4 9 13 14 14 16 17 18 17 17 20 22 21 21 20 20 20 21 21 21 21 20 20 20
5 5 6 6 3 3 3 1 4 4 4 7 7 8 10 11 12 12 11 11 11 11 9 7 5 12 18 18 17 18 19 19 19 19 20 21 23 22 21 22 21 21 22 22 22 21 20 20 19
8 7 3 3 4 5 4 4 5 8 6 6 7 11 11 10 9 3 1 3 5 5 6 2 4 6 9 12 16 19 21 21 21 22 23 23 23 24 24 23 23 22 22 23 23 22 20 20 19
4 4 3 5 4 5 3 5 4 8 6 3 4 5 13 11 6 4 5 6 7 8 6 6 8 6 7 11 15 18 20 22 24 24 24 21 22 25 27 26 25 24 23 22 23 23 20 19 17
4 8 8 5 6 2 3 4 4 7 7 12 13 12 4 8 11 12 10 12 12 12 11 9 7 5 10 12 12 16 19 21 24 25 25 23 21 23 23 28 28 26 24 22 22 22 21 19 18
Wind_Direction
16 316 307 320 45 57 294 282 290 307 354 307 138 153 170 103 170 207 165 166 168 169 170 167 170 175 177 179 180 178 174 169 167 162 160 159 159 160 162 160 156 145 129 115 110 106 101 95 94
348 335 26 96 84 47 297 255 338 319 92 116 110 89 92 144 179 170 156 163 169 172 173 167 169 170 174 179 181 180 177 173 173 171 170 169 168 167 165 164 162 161 150 135 124 119 115 113 109
336 356 115 88 97 158 244 274 311 321 169 131 128 165 165 176 162 160 158 165 173 178 178 173 173 172 171 172 178 179 178 177 178 177 176 176 175 174 171 170 170 173 176 171 148 132 128 130 128
331 95 68 80 197 255 232 275 285 291 204 247 152 97 147 164 161 171 162 168 172 182 180 180 180 178 177 173 174 177 178 180 181 181 182 183 185 183 180 180 177 182 191 194 190 164 147 145 150
29 76 64 82 252 262 261 294 323 323 301 164 256 167 158 167 171 174 172 171 178 183 183 185 187 185 185 183 179 180 180 183 185 186 188 191 191 195 194 191 190 194 201 212 214 210 193 166 167
73 75 52 135 257 258 286 334 21 18 359 136 87 116 155 194 198 177 176 175 182 190 188 190 190 191 191 191 189 187 188 189 191 193 194 199 200 205 209 207 208 209 216 224 228 230 231 224 196
107 84 188 219 230 297 344 355 54 342 348 13 140 125 189 187 191 184 181 181 186 197 198 195 195 195 196 196 196 196 195 196 196 200 203 209 210 215 220 221 224 227 229 233 237 239 241 242 241
54 93 184 248 183 267 345 359 347 7 17 347 227 196 196 193 190 190 184 186 193 200 204 200 199 200 201 200 200 201 202 202 204 207 212 220 221 224 229 233 235 239 240 240 244 245 246 248 250
333 60 200 266 225 283 348 0 339 335 342 335 314 289 284 201 189 191 189 191 196 198 200 203 204 204 206 205 206 205 206 209 211 215 219 227 234 237 239 244 245 246 247 246 246 248 248 251 252
87 124 213 241 333 296 304 321 316 335 326 298 338 318 263 196 193 195 197 198 200 201 200 204 208 209 209 209 211 210 211 213 217 224 231 236 241 246 250 252 253 254 254 252 253 251 250 252 251
355 210 261 321 355 336 311 308 337 315 304 303 297 280 209 195 200 204 208 211 209 207 210 213 212 211 212 213 212 213 214 216 220 229 234 241 245 251 254 254 251 261 267 255 253 263 267 254 252
357 276 3 317 321 320 314 315 309 269 277 303 299 277 217 206 213 216 216 216 215 215 221 218 206 209 212 214 215 216 217 219 221 229 235 242 251 255 260 264 254 246 255 255 260 263 254 251 255
196 332 316 312 306 303 293 274 273 277 293 289 287 246 229 223 230 225 222 225 225 224 221 216 209 210 212 213 214 215 219 221 225 230 235 244 255 261 265 264 256 245 242 251 254 252 248 248 249
318 306 303 309 298 289 271 295 310 297 310 296 281 263 240 233 232 226 223 228 229 227 224 216 211 211 211 213 216 217 219 220 221 228 234 247 258 264 267 264 253 247 246 239 244 243 244 242 241
298 306 317 266 276 276 357 353 232 320 336 329 292 274 248 241 236 232 237 232 228 229 225 217 214 214 215 213 212 211 214 217 222 232 242 256 264 263 263 266 259 254 249 241 241 241 240 238 245
331 360 349 292 325 282 138 274 291 331 334 338 329 290 284 260 241 244 235 235 234 229 224 220 218 220 216 209 213 213 218 224 227 236 250 260 264 263 261 264 263 259 253 250 245 240 239 236 237
335 256 242 317 331 312 11 293 283 321 326 331 338 333 324 303 264 251 237 235 234 227 224 219 218 219 220 217 219 218 222 228 234 242 251 258 260 259 255 255 258 256 256 257 252 250 247 239 231
229 233 249 253 294 348 303 253 276 304 348 356 355 357 338 303 295 291 248 239 235 228 225 222 218 215 215 221 220 220 224 230 238 249 257 259 260 259 258 257 256 253 252 256 261 258 250 239 228
347 302 300 266 278 310 279 266 279 310 19 9 3 353 340 329 309 269 256 242 231 229 225 218 219 213 216 219 220 223 228 235 243 249 252 255 258 257 253 252 253 254 256 255 252 246 241 235 223
267 280 281 281 266 175 271 292 280 287 24 328 341 350 328 317 306 275 243 234 230 226 223 220 218 213 213 220 230 236 241 245 248 250 250 250 254 258 254 253 252 253 254 251 246 243 233 223 210
237 213 248 226 284 297 323 295 261 47 52 21 16 4 5 343 323 296 234 227 223 218 220 219 216 213 214 224 236 252 252 251 254 257 257 258 260 263 259 254 255 256 251 248 244 240 234 224 204
242 209 239 250 212 235 49 283 312 312 43 8 19 18 13 17 2 290 206 203 207 209 211 214 209 204 208 226 247 259 269 273 279 282 281 279 280 282 277 266 258 255 254 250 247 242 232 225 219
228 248 212 215 181 117 249 300 262 126 38 1 350 35 40 39 39 43 192 204 203 205 203 203 194 198 223 254 253 257 268 277 285 284 286 289 293 294 291 279 265 259 256 254 250 245 239 231 223
197 119 47 43 95 303 223 178 271 289 168 212 2 62 60 55 55 62 74 88 213 209 204 195 200 228 246 254 274 280 286 295 298 300 301 301 304 305 299 285 271 265 258 257 257 251 242 237 233
103 96 341 334 330 229 303 143 224 184 151 167 145 86 81 74 68 71 71 82 102 129 168 209 226 238 276 290 300 303 301 297 299 303 296 292 300 309 303 289 281 273 267 258 254 252 249 241 235
181 161 157 212 214 259 301 233 215 169 116 134 118 110 100 94 90 89 91 93 96 103 112 106 96 334 321 309 302 299 291 289 289 287 290 293 297 303 296 286 284 281 273 265 256 250 247 244 241
176 192 177 110 33 39 235 47 10 117 134 121 126 126 111 111 106 98 106 109 111 127 134 148 222 267 276 286 288 288 284 287 291 291 287 294 300 290 286 290 287 283 276 266 258 247 241 241 242
180 156 85 347 162 223 250 223 204 180 185 170 141 167 155 148 138 58 92 154 152 163 161 199 259 254 268 275 280 282 279 287 288 282 287 290 295 285 281 284 286 277 274 267 259 253 245 241 240
124 179 78 129 155 181 188 252 234 145 166 131 6 81 197 199 220 269 229 207 194 191 220 205 197 238 287 266 272 277 281 285 280 281 288 290 287 279 274 273 273 272 270 266 258 252 243 235 233
161 193 159 161 208 244 155 281 94 139 116 55 3 345 20 245 273 274 241 218 224 231 210 196 200 274 297 292 273 275 278 280 280 288 290 282 287 276 272 268 269 264 261 259 253 245 236 229 225
Height
1513 1513 1513 1513 1523 1528 1532 1520 1509 1503 1498 1494 1494 1496 1499 1503 1505 1518 1503 1506 1510 1514 1518 1521 1522 1525 1527 1530 1533 1534 1535 1537 1540 1541 1542 1544 1545 1546 1548 1549 1550 1551 1551 1551 1552 1552 1552 1552 1553
1513 1513 1513 1513 1534 1543 1532 1513 1503 1500 1500 1496 1496 1499 1502 1503 1503 1501 1502 1506 1511 1515 1519 1522 1525 1526 1528 1530 1532 1534 1536 1537 1539 1541 1542 1543 1546 1547 1547 1548 1550 1551 1552 1552 1552 1553 1553 1553 1554
1513 1512 1514 1522 1542 1540 1530 1508 1502 1498 1501 1501 1502 1502 1501 1501 1501 1501 1503 1506 1510 1515 1519 1522 1525 1528 1529 1530 1533 1535 1536 1537 1539 1540 1542 1544 1545 1546 1547 1548 1549 1551 1552 1553 1554 1554 1554 1554 1555
1512 1513 1517 1530 1534 1523 1516 1505 1500 1497 1497 1499 1497 1500 1501 1499 1500 1502 1504 1506 1510 1514 1518 1522 1525 1527 1530 1530 1532 1535 1537 1538 1539 1541 1542 1544 1546 1546 1547 1548 1549 1550 1552 1553 1554 1554 1555 1555 1555
1513 1513 1526 1535 1528 1518 1511 1505 1498 1497 1497 1497 1498 1501 1500 1500 1501 1502 1503 1506 1509 1513 1517 1521 1524 1527 1529 1532 1532 1534 1536 1538 1540 1541 1542 1544 1544 1546 1547 1548 1548 1550 1551 1553 1554 1554 1555 1555 1555
1513 1515 1533 1539 1527 1513 1508 1506 1500 1499 1498 1498 1499 1502 1503 1501 1503 1503 1505 1507 1510 1512 1515 1519 1522 1526 1528 1530 1532 1534 1535 1537 1539 1541 1542 1543 1544 1546 1547 1548 1548 1549 1550 1551 1553 1553 1554 1555 1555
1514 1521 1530 1528 1525 1514 1509 1504 1505 1504 1500 1500 1499 1503 1503 1502 1503 1506 1508 1510 1511 1513 1513 1516 1520 1523 1526 1529 1531 1533 1535 1536 1538 1540 1542 1543 1544 1545 1546 1547 1548 1548 1549 1549 1551 1552 1553 1553 1554
1513 1517 1523 1521 1523 1516 1507 1506 1505 1505 1504 1503 1501 1501 1502 1499 1501 1505 1506 1509 1511 1512 1514 1515 1518 1521 1524 1526 1529 1531 1534 1535 1537 1538 1540 1542 1543 1543 1545 1546 1547 1547 1548 1548 1549 1550 1551 1551 1553
1514 1524 1532 1521 1517 1512 1507 1506 1503 1504 1503 1502 1501 1499 1498 1497 1499 1503 1505 1507 1509 1510 1513 1514 1516 1519 1522 1525 1527 1530 1532 1534 1535 1537 1538 1540 1543 1543 1543 1545 1545 1546 1546 1546 1547 1548 1549 1550 1550
1515 1527 1522 1513 1512 1511 1509 1509 1506 1504 1502 1502 1502 1500 1497 1498 1498 1497 1498 1499 1502 1505 1508 1512 1515 1517 1520 1522 1525 1527 1529 1531 1534 1535 1537 1539 1540 1542 1543 1543 1544 1544 1544 1544 1545 1545 1547 1548 1548
1517 1522 1516 1512 1511 1511 1508 1507 1506 1506 1504 1501 1500 1499 1497 1499 1500 1499 1499 1499 1501 1504 1508 1508 1512 1515 1516 1519 1521 1524 1527 1529 1531 1533 1536 1537 1538 1540 1541 1541 1541 1542 1543 1543 1544 1544 1545 1546 1546
1519 1514 1516 1514 1511 1510 1508 1506 1504 1502 1500 1499 1498 1497 1496 1497 1497 1496 1499 1501 1502 1505 1507 1508 1510 1513 1516 1518 1521 1523 1526 1528 1529 1530 1532 1534 1536 1536 1538 1539 1539 1541 1541 1541 1542 1543 1544 1545 1545
1516 1515 1513 1511 1509 1506 1506 1503 1502 1497 1495 1494 1493 1494 1493 1493 1494 1495 1496 1499 1501 1502 1504 1506 1508 1510 1513 1515 1518 1521 1524 1527 1528 1529 1530 1532 1533 1534 1535 1536 1537 1538 1539 1539 1540 1541 1542 1543 1543
1516 1514 1510 1507 1504 1501 1500 1500 1499 1493 1491 1488 1489 1489 1489 1489 1489 1491 1493 1495 1497 1499 1501 1503 1505 1508 1510 1513 1515 1518 1521 1524 1526 1528 1529 1530 1531 1531 1531 1532 1534 1535 1536 1538 1539 1539 1539 1541 1542
1515 1515 1510 1503 1501 1499 1497 1500 1497 1490 1488 1482 1479 1479 1483 1484 1485 1485 1486 1488 1492 1495 1497 1500 1503 1504 1505 1508 1512 1515 1518 1521 1524 1526 1527 1528 1529 1528 1529 1529 1529 1531 1533 1534 1535 1537 1538 1539 1539
1515 1515 1519 1504 1501 1499 1498 1507 1490 1487 1486 1481 1476 1476 1478 1478 1479 1480 1482 1485 1489 1494 1495 1497 1498 1500 1501 1504 1509 1513 1515 1518 1520 1522 1524 1526 1527 1526 1526 1526 1528 1530 1531 1533 1533 1534 1535 1536 1537
1521 1525 1519 1512 1500 1501 1500 1503 1490 1486 1483 1480 1476 1474 1473 1473 1476 1476 1476 1479 1482 1486 1490 1493 1496 1497 1502 1505 1507 1511 1513 1515 1517 1518 1521 1522 1523 1523 1524 1524 1525 1527 1530 1531 1533 1534 1534 1534 1535
1524 1524 1521 1518 1506 1503 1506 1503 1493 1486 1481 1480 1477 1474 1472 1471 1470 1470 1472 1476 1480 1484 1487 1490 1495 1498 1500 1503 1506 1508 1511 1513 1514 1516 1518 1520 1521 1521 1520 1520 1520 1523 1525 1527 1529 1531 1533 1534 1533
1516 1518 1520 1515 1505 1508 1503 1502 1492 1484 1482 1479 1475 1473 1470 1467 1466 1465 1466 1470 1475 1481 1485 1489 1493 1496 1501 1503 1504 1507 1509 1512 1514 1515 1516 1517 1519 1519 1518 1518 1517 1519 1521 1523 1523 1525 1529 1531 1532
1518 1521 1519 1510 1502 1505 1502 1498 1489 1483 1482 1481 1476 1471 1467 1464 1462 1461 1461 1463 1467 1475 1482 1488 1492 1497 1500 1504 1507 1510 1512 1512 1513 1514 1515 1515 1516 1517 1517 1517 1515 1515 1518 1519 1520 1521 1523 1525 1527
1514 1517 1513 1511 1502 1500 1499 1500 1490 1487 1486 1484 1482 1477 1471 1464 1459 1458 1458 1459 1464 1468 1476 1483 1489 1495 1501 1508 1510 1512 1512 1512 1511 1512 1513 1515 1514 1514 1515 1513 1514 1515 1514 1516 1517 1517 1520 1522 1523
1515 1500 1501 1503 1505 1515 1499 1518 1494 1488 1492 1488 1484 1480 1475 1467 1463 1458 1457 1459 1463 1469 1475 1481 1487 1497 1503 1506 1506 1509 1511 1512 1512 1512 1513 1513 1513 1514 1513 1512 1510 1510 1513 1513 1514 1515 1515 1518 1521
1502 1493 1497 1496 1501 1506 1504 1514 1497 1490 1493 1490 1487 1482 1477 1473 1470 1467 1466 1465 1468 1471 1474 1482 1492 1500 1504 1505 1506 1507 1508 1509 1510 1511 1510 1510 1512 1512 1511 1510 1509 1507 1509 1510 1511 1512 1514 1514 1516
1488 1493 1499 1503 1507 1520 1502 1505 1506 1498 1491 1490 1489 1485 1481 1478 1474 1472 1471 1474 1477 1480 1484 1490 1496 1499 1501 1506 1507 1506 1508 1508 1508 1508 1509 1508 1508 1509 1508 1506 1505 1505 1504 1507 1509 1510 1511 1513 1514
1491 1500 1522 1523 1524 1520 1498 1506 1497 1491 1490 1489 1489 1488 1485 1483 1481 1478 1479 1479 1482 1484 1488 1494 1498 1500 1502 1503 1502 1504 1506 1506 1506 1504 1505 1506 1505 1505 1504 1504 1503 1503 1502 1502 1505 1506 1508 1509 1510
1494 1497 1518 1521 1526 1517 1503 1504 1494 1486 1487 1487 1488 1489 1488 1487 1487 1484 1484 1483 1485 1488 1490 1491 1497 1500 1502 1502 1502 1503 1502 1502 1502 1501 1500 1501 1501 1501 1501 1502 1500 1500 1500 1500 1500 1502 1503 1504 1506
1490 1497 1491 1512 1521 1535 1510 1497 1491 1490 1490 1488 1487 1488 1490 1490 1490 1489 1488 1487 1487 1489 1490 1490 1491 1493 1494 1496 1498 1499 1498 1496 1496 1496 1497 1497 1498 1496 1497 1498 1497 1496 1497 1497 1498 1498 1498 1499 1501
1474 1482 1505 1516 1516 1518 1509 1500 1496 1492 1493 1491 1489 1487 1488 1490 1489 1489 1488 1488 1488 1489 1490 1490 1490 1492 1492 1493 1493 1494 1494 1492 1492 1492 1492 1493 1493 1493 1494 1495 1493 1492 1492 1493 1495 1496 1495 1496 1496
1478 1484 1492 1498 1508 1510 1510 1502 1485 1485 1490 1491 1490 1488 1486 1487 1488 1489 1489 1488 1488 1488 1489 1488 1488 1489 1489 1487 1489 1491 1490 1489 1489 1488 1488 1488 1489 1489 1490 1489 1490 1488 1490 1489 1490 1492 1492 1492 1493
1465 1470 1479 1496 1498 1511 1510 1498 1483 1485 1487 1490 1493 1490 1488 1488 1490 1489 1489 1488 1487 1487 1486 1486 1486 1486 1485 1484 1484 1486 1486 1485 1484 1483 1484 1484 1483 1483 1484 1485 1485 1484 1486 1485 1486 1489 1488 1488 1489